When you browse on this site, cookies collect data to enhance your experience and personalize the content and advertising you see.
Visit our Privacy Policy to learn more. By continuing to use the site, you agree to this use of cookies and data.
  • In Österreich
  • Länderverzeichnis
  • Für 7 Tage
  • Wassertemperatur
  • Wetterkarte
  • News
  • Widgets
  • user-avatar
    Anmelden

    Stündliche Wetter Korçe

    Heute, 7 Dezember, Samstag

    Zeit Temperatur Niederschläge Wind Luftdruck Luftfeuchtigkeit
    00:00 +7°C° 0.7 mm 2 m/S 669 mmHg 97%
    01:00 +7°C° 0 mm 2 m/S 668 mmHg 96%
    02:00 +7°C° 0.5 mm 2 m/S 668 mmHg 97%
    03:00 +7°C° 0.5 mm 2 m/S 668 mmHg 97%
    04:00 +7°C° 0.5 mm 2 m/S 667 mmHg 97%
    05:00 +7°C° 0.2 mm 2 m/S 667 mmHg 97%
    06:00 +7°C° 0.2 mm 2 m/S 667 mmHg 97%
    07:00 +8°C° 0 mm 1 m/S 667 mmHg 97%
    08:00 +8°C° 0.4 mm 1 m/S 667 mmHg 94%
    09:00 +9°C° 0.4 mm 1 m/S 668 mmHg 91%
    10:00 +8°C° 0.4 mm 2 m/S 668 mmHg 88%
    11:00 +9°C° 0.3 mm 2 m/S 668 mmHg 83%
    12:00 +9°C° 0.3 mm 2 m/S 667 mmHg 78%
    13:00 +10°C° 0 mm 3 m/S 667 mmHg 72%
    14:00 +9°C° 0 mm 2 m/S 667 mmHg 77%
    15:00 +8°C° 0 mm 2 m/S 667 mmHg 81%
    16:00 +8°C° 0 mm 1 m/S 667 mmHg 86%
    17:00 +7°C° 0 mm 1 m/S 667 mmHg 89%
    18:00 +7°C° 0 mm 1 m/S 667 mmHg 92%
    19:00 +6°C° 0 mm 1 m/S 667 mmHg 95%
    20:00 +6°C° 0 mm 1 m/S 667 mmHg 95%
    21:00 +6°C° 0 mm 1 m/S 667 mmHg 95%
    22:00 +5°C° 0 mm 1 m/S 667 mmHg 95%
    23:00 +5°C° 0 mm 1 m/S 667 mmHg 94%

    Morgen, 8 Dezember, Sonntag

    Zeit Temperatur Niederschläge Wind Luftdruck Luftfeuchtigkeit
    00:00 +5°C° 0 mm 1 m/S 667 mmHg 94%
    01:00 +5°C° 0 mm 1 m/S 667 mmHg 93%
    02:00 +5°C° 0 mm 1 m/S 667 mmHg 93%
    03:00 +5°C° 0 mm 1 m/S 667 mmHg 92%
    04:00 +4°C° 0 mm 1 m/S 666 mmHg 91%
    05:00 +4°C° 0 mm 1 m/S 667 mmHg 91%
    06:00 +4°C° 0 mm 1 m/S 667 mmHg 90%
    07:00 +4°C° 0 mm 1 m/S 667 mmHg 89%
    08:00 +6°C° 0 mm 1 m/S 667 mmHg 84%
    09:00 +7°C° 0 mm 1 m/S 668 mmHg 79%
    10:00 +9°C° 0 mm 1 m/S 668 mmHg 74%
    11:00 +9°C° 0 mm 1 m/S 668 mmHg 72%
    12:00 +9°C° 0 mm 2 m/S 668 mmHg 70%
    13:00 +9°C° 0 mm 2 m/S 668 mmHg 68%
    14:00 +8°C° 0 mm 2 m/S 668 mmHg 73%
    15:00 +8°C° 0 mm 1 m/S 667 mmHg 79%
    16:00 +7°C° 0 mm 1 m/S 667 mmHg 84%
    17:00 +7°C° 0 mm 1 m/S 667 mmHg 86%
    18:00 +6°C° 0 mm 1 m/S 667 mmHg 88%
    19:00 +4°C° 0 mm 0 m/S 667 mmHg 90%
    20:00 +4°C° 0 mm 0 m/S 667 mmHg 89%
    21:00 +4°C° 0 mm 0 m/S 666 mmHg 88%
    22:00 +3°C° 0 mm 0 m/S 666 mmHg 87%
    23:00 +3°C° 0 mm 0 m/S 666 mmHg 86%

    übermorgen, 9 Dezember, Montag

    Zeit Temperatur Niederschläge Wind Luftdruck Luftfeuchtigkeit
    00:00 +3°C° 0 mm 0 m/S 666 mmHg 86%
    01:00 +4°C° 0 mm 1 m/S 665 mmHg 86%
    02:00 +4°C° 0 mm 1 m/S 665 mmHg 85%
    03:00 +4°C° 0 mm 1 m/S 665 mmHg 84%
    04:00 +3°C° 0 mm 1 m/S 664 mmHg 83%
    05:00 +3°C° 0 mm 1 m/S 664 mmHg 84%
    06:00 +3°C° 0 mm 1 m/S 664 mmHg 84%
    07:00 +3°C° 0 mm 1 m/S 664 mmHg 84%
    08:00 +5°C° 0 mm 1 m/S 664 mmHg 79%
    09:00 +6°C° 0 mm 1 m/S 665 mmHg 74%
    10:00 +8°C° 0 mm 1 m/S 665 mmHg 70%
    11:00 +9°C° 0 mm 1 m/S 665 mmHg 68%
    12:00 +9°C° 0 mm 1 m/S 664 mmHg 66%
    13:00 +10°C° 0 mm 1 m/S 664 mmHg 64%
    14:00 +9°C° 0 mm 1 m/S 663 mmHg 70%
    15:00 +8°C° 0 mm 1 m/S 663 mmHg 76%
    16:00 +7°C° 0 mm 1 m/S 662 mmHg 83%
    17:00 +6°C° 0 mm 1 m/S 662 mmHg 85%
    18:00 +6°C° 0 mm 1 m/S 662 mmHg 88%
    19:00 +5°C° 0 mm 1 m/S 662 mmHg 90%
    20:00 +5°C° 0 mm 1 m/S 662 mmHg 91%
    21:00 +5°C° 0 mm 1 m/S 662 mmHg 92%
    22:00 +4°C° 0 mm 2 m/S 661 mmHg 93%
    23:00 +4°C° 0 mm 2 m/S 661 mmHg 93%

    10 Dezember, Dienstag

    Zeit Temperatur Niederschläge Wind Luftdruck Luftfeuchtigkeit
    00:00 +5°C° 0 mm 1 m/S 661 mmHg 92%
    01:00 +5°C° 0 mm 1 m/S 661 mmHg 92%
    02:00 +4°C° 0 mm 1 m/S 661 mmHg 92%
    03:00 +4°C° 0 mm 1 m/S 660 mmHg 91%
    04:00 +4°C° 0 mm 1 m/S 660 mmHg 90%
    05:00 +4°C° 0.1 mm 1 m/S 660 mmHg 90%
    06:00 +3°C° 0.1 mm 2 m/S 660 mmHg 89%
    07:00 +3°C° 0.1 mm 2 m/S 660 mmHg 88%
    08:00 +4°C° 0 mm 2 m/S 660 mmHg 86%
    09:00 +5°C° 0 mm 2 m/S 661 mmHg 84%
    10:00 +6°C° 0 mm 2 m/S 661 mmHg 81%
    11:00 +6°C° 0.1 mm 2 m/S 661 mmHg 82%
    12:00 +6°C° 0.1 mm 2 m/S 660 mmHg 82%
    13:00 +6°C° 0.1 mm 2 m/S 660 mmHg 82%
    14:00 +5°C° 0.8 mm 2 m/S 660 mmHg 85%
    15:00 +5°C° 0.8 mm 2 m/S 659 mmHg 88%
    16:00 +4°C° 0.8 mm 2 m/S 659 mmHg 91%
    17:00 +4°C° 1.3 mm 2 m/S 659 mmHg 92%
    18:00 +4°C° 1.3 mm 2 m/S 659 mmHg 93%
    19:00 +4°C° 1.3 mm 2 m/S 659 mmHg 94%
    20:00 +4°C° 0.9 mm 2 m/S 659 mmHg 93%
    21:00 +4°C° 0.9 mm 2 m/S 659 mmHg 93%
    22:00 +3°C° 0.9 mm 3 m/S 659 mmHg 93%
    23:00 +3°C° 0.5 mm 3 m/S 660 mmHg 92%

    11 Dezember, Mittwoch

    Zeit Temperatur Niederschläge Wind Luftdruck Luftfeuchtigkeit
    00:00 +3°C° 0.5 mm 3 m/S 660 mmHg 92%
    01:00 +3°C° 0.5 mm 3 m/S 660 mmHg 92%
    02:00 +3°C° 0.1 mm 3 m/S 660 mmHg 91%
    03:00 +3°C° 0.1 mm 3 m/S 660 mmHg 91%
    04:00 +3°C° 0.1 mm 3 m/S 659 mmHg 90%
    05:00 +2°C° 0.1 mm 3 m/S 660 mmHg 90%
    06:00 +2°C° 0.1 mm 3 m/S 660 mmHg 90%
    07:00 +2°C° 0.1 mm 3 m/S 660 mmHg 90%
    08:00 +2°C° 0.1 mm 3 m/S 661 mmHg 89%
    09:00 +3°C° 0.1 mm 3 m/S 661 mmHg 87%
    10:00 +3°C° 0.1 mm 3 m/S 661 mmHg 86%
    11:00 +3°C° 0.1 mm 3 m/S 661 mmHg 84%
    12:00 +3°C° 0.1 mm 3 m/S 661 mmHg 83%
    13:00 +3°C° 0.1 mm 3 m/S 661 mmHg 82%
    14:00 +3°C° 0.1 mm 3 m/S 661 mmHg 83%
    15:00 +3°C° 0.1 mm 2 m/S 661 mmHg 84%
    16:00 +3°C° 0.1 mm 2 m/S 661 mmHg 85%
    17:00 +3°C° 0.1 mm 2 m/S 661 mmHg 86%
    18:00 +2°C° 0.1 mm 2 m/S 661 mmHg 87%
    19:00 +2°C° 0.1 mm 2 m/S 661 mmHg 87%
    20:00 +1°C° 0 mm 2 m/S 661 mmHg 87%
    21:00 +1°C° 0 mm 2 m/S 661 mmHg 87%
    22:00 +1°C° 0 mm 2 m/S 661 mmHg 88%
    23:00 +1°C° 0 mm 2 m/S 661 mmHg 87%

    12 Dezember, Donnerstag

    Zeit Temperatur Niederschläge Wind Luftdruck Luftfeuchtigkeit
    00:00 +1°C° 0 mm 2 m/S 661 mmHg 87%
    01:00 -1°C° 0 mm 2 m/S 661 mmHg 86%
    02:00 -1°C° 0 mm 2 m/S 661 mmHg 86%
    03:00 +1°C° 0 mm 2 m/S 661 mmHg 86%
    04:00 +1°C° 0 mm 2 m/S 661 mmHg 85%
    05:00 +1°C° 0 mm 2 m/S 661 mmHg 85%
    06:00 +1°C° 0 mm 2 m/S 661 mmHg 85%
    07:00 +1°C° 0 mm 2 m/S 661 mmHg 85%
    08:00 +2°C° 0 mm 2 m/S 662 mmHg 81%
    09:00 +4°C° 0 mm 2 m/S 662 mmHg 77%
    10:00 +7°C° 0 mm 1 m/S 663 mmHg 73%
    11:00 +8°C° 0 mm 1 m/S 663 mmHg 71%
    12:00 +8°C° 0 mm 1 m/S 663 mmHg 68%
    13:00 +9°C° 0 mm 1 m/S 663 mmHg 66%
    14:00 +8°C° 0 mm 1 m/S 662 mmHg 71%
    15:00 +7°C° 0 mm 1 m/S 662 mmHg 76%
    16:00 +6°C° 0 mm 1 m/S 662 mmHg 82%
    17:00 +6°C° 0 mm 1 m/S 662 mmHg 84%
    18:00 +5°C° 0 mm 1 m/S 662 mmHg 86%
    19:00 +5°C° 0 mm 1 m/S 662 mmHg 88%
    20:00 +5°C° 0.1 mm 1 m/S 662 mmHg 89%
    21:00 +5°C° 0.1 mm 1 m/S 662 mmHg 90%
    22:00 +5°C° 0.1 mm 1 m/S 662 mmHg 91%
    23:00 +5°C° 0.1 mm 1 m/S 661 mmHg 91%
    Mehr zeigen